This demonstration page uses our WeatherBlox Daily Observations layout. Learn more.

Left ArrowRight Arrow

39.51506, -84.39828

Hourly Observations for October 17, 2020

Temp ( °F °C ) Dew Point ( °F °C ) Humidity (%) Winds ( mph kmh ) Pressure ( in mb ) Visibility ( mi km ) Precip ( " mm )
12:15 am 00:15 Clear 34 1.3 32 -0.2 90 90 Calm 30.28 1025 10 16.0934 0 0
12:35 am 00:35 Clear 33 0.6 31 -0.4 93 93 Calm 30.28 1026 10 16.0934 0 0
12:55 am 00:55 Clear 33 0.7 32 -0.2 94 94 Calm 30.28 1026 10 16.0934 0 0
1:15 am 01:15 Clear 33 0.5 31 -0.4 94 94 Calm 30.28 1026 10 16.0934 0 0
1:35 am 01:35 Clear 33 0.4 32 -0.2 96 96 Calm 30.28 1026 10 16.0934 0 0
1:55 am 01:55 Clear 32 0.2 31 -0.3 96 96 Calm 30.29 1026 10 16.0934 0 0
2:15 am 02:15 Clear 33 0.4 32 -0.1 96 96 Calm 30.29 1026 10 16.0934 0 0
2:35 am 02:35 Clear 32 -0.1 31 -0.6 96 96 Calm 30.31 1026 10 16.0934 0 0
2:55 am 02:55 Clear 31 -0.4 30 -1 96 96 Calm 30.31 1026 10 16.0934 0 0
3:15 am 03:15 Clear 31 -0.5 30 -1.1 96 96 Calm 30.32 1027 10 16.0934 0 0
3:35 am 03:35 Clear 31 -0.3 31 -0.7 97 97 Calm 30.32 1027 10 16.0934 0 0
3:55 am 03:55 Clear 32 0 30 -1 93 93 Calm 30.32 1027 7 11.26538 0 0
4:15 am 04:15 Clear 32 0 30 -1 93 93 Calm 30.32 1027 10 16.0934 0 0
4:35 am 04:35 Clear 31 -0.6 31 -0.8 99 99 Calm 30.33 1027 10 16.0934 0 0
4:55 am 04:55 Clear 31 -0.4 31 -0.5 99 99 Calm 30.33 1027 10 16.0934 0 0
5:15 am 05:15 Clear 30 -1 30 -1 100 100 Calm 30.34 1027 10 16.0934 0 0
5:35 am 05:35 Clear with Mist and Fog 31 -0.6 31 -0.7 99 99 Calm 30.34 1027 5 8.0467 0 0
5:55 am 05:55 Hazy 30 -1 N/A N/A Calm 30.35 1028 5 8.0467 0 0
6:15 am 06:15 Clear 30 -1 N/A N/A Calm 30.36 1028 10 16.0934 0 0
6:35 am 06:35 Hazy 32 0 N/A N/A Calm 30.37 1028 5 8.0467 0 0
6:55 am 06:55 Clear 32 0 N/A N/A Calm 30.36 1028 10 16.0934 0 0
7:15 am 07:15 Mostly Cloudy with Mist and Fog 30 -1 N/A N/A Calm 30.36 1028 0.75 1.207005 0 0
7:35 am 07:35 Mostly Cloudy with Freezing Fog 30 -1 N/A N/A Calm 30.37 1028 0.5 0.80467 0 0
7:55 am 07:55 Mostly Cloudy with Freezing Fog 30 -1 N/A N/A Calm 30.37 1028 0.25 0.402335 0 0
8:15 am 08:15 Mostly Cloudy with Mist and Fog 30 -1 N/A N/A Calm 30.37 1028 0.75 1.207005 0 0
8:35 am 08:35 Sunny 30 -1 N/A N/A Calm 30.38 1029 7 11.26538 0 0
8:55 am 08:55 Sunny 32 0 N/A N/A Calm 30.39 1029 10 16.0934 0 0
9:15 am 09:15 Sunny 36 2 N/A N/A Calm 30.38 1029 10 16.0934 0 0
9:35 am 09:35 Sunny 38 3.4 37 3 97 97 Calm 30.38 1029 10 16.0934 0 0
9:55 am 09:55 Sunny 41 5 36 2.2 82 82 WSW 3 6 30.37 1029 10 16.0934 0 0
10:15 am 10:15 Sunny 43 5.9 35 1.4 73 73 Calm 30.37 1028 10 16.0934 0 0
10:35 am 10:35 Sunny 44 6.9 35 1.8 70 70 Calm 30.37 1028 10 16.0934 0 0
10:55 am 10:55 Sunny 47 8.2 34 1.2 62 62 Calm 30.36 1028 10 16.0934 0 0
11:15 am 11:15 Sunny 49 9.3 35 1.6 59 59 Calm 30.36 1028 10 16.0934 0 0
11:35 am 11:35 Sunny 51 10.6 33 0.6 50 50 WSW 6 9 30.37 1028 10 16.0934 0 0
11:55 am 11:55 Sunny 54 12.1 31 -0.4 42 42 W 6 9 30.36 1028 10 16.0934 0 0
12:15 pm 12:15 Sunny 55 12.8 32 -0.1 41 41 W 8 13 30.36 1028 10 16.0934 0 0
12:35 pm 12:35 Sunny 56 13.6 31 -0.3 39 39 WSW 8 13 30.35 1028 10 16.0934 0 0
12:55 pm 12:55 Sunny 58 14.6 29 -1.4 33 33 WSW 10 17 30.34 1027 10 16.0934 0 0
1:15 pm 13:15 Sunny 60 15.3 28 -2.4 30 30 WSW 12 19 30.33 1027 10 16.0934 0 0
1:35 pm 13:35 Sunny 60 15.4 29 -1.8 31 31 WSW 5 7 30.31 1026 10 16.0934 0 0
1:55 pm 13:55 Sunny 61 16.2 26 -3.1 27 27 WSW 10 17 30.29 1026 10 16.0934 0 0
2:15 pm 14:15 Sunny 61 16 26 -3.2 27 27 WSW 9 15 30.29 1026 10 16.0934 0 0
2:35 pm 14:35 Sunny 62 16.4 26 -3.5 26 26 SW 9 15 30.27 1025 10 16.0934 0 0
2:55 pm 14:55 Sunny 61 16.3 24 -4.3 24 24 WSW 9 15 30.26 1025 10 16.0934 0 0
3:15 pm 15:15 Sunny 61 16.3 26 -3.4 26 26 SW 8 13 30.26 1025 10 16.0934 0 0
3:35 pm 15:35 Sunny 61 16.3 26 -3.6 25 25 WSW 12 19 30.25 1024 10 16.0934 0 0
3:55 pm 15:55 Sunny 61 16.1 24 -4.2 25 25 WSW 12 19 30.25 1025 10 16.0934 0 0
4:15 pm 16:15 Sunny 62 16.4 24 -4.6 23 23 WSW 13 20 30.24 1024 10 16.0934 0 0
4:35 pm 16:35 Sunny 62 16.4 26 -3.3 26 26 SW 7 11 30.24 1024 10 16.0934 0 0
4:55 pm 16:55 Sunny 61 16.1 23 -4.8 24 24 SSW 9 15 30.23 1024 10 16.0934 0 0
5:15 pm 17:15 Sunny 60 15.8 24 -4.4 25 25 SW 7 11 30.22 1024 10 16.0934 0 0
5:35 pm 17:35 Sunny 60 15.5 26 -3.6 27 27 SW 10 17 30.23 1024 10 16.0934 0 0
5:55 pm 17:55 Sunny 60 15.5 28 -2.4 29 29 SSW 7 11 30.23 1024 10 16.0934 0 0
6:15 pm 18:15 Sunny 60 15.5 28 -2.3 30 30 S 8 13 30.22 1023 10 16.0934 0 0
6:35 pm 18:35 Sunny 59 14.9 28 -2.3 31 31 SW 8 13 30.22 1023 10 16.0934 0 0
6:55 pm 18:55 Sunny 58 14.7 28 -2.4 31 31 SW 9 15 30.22 1023 10 16.0934 0 0
7:15 pm 19:15 Clear 57 14.1 28 -2.4 32 32 SW 7 11 30.21 1023 10 16.0934 0 0
7:35 pm 19:35 Clear 56 13.6 28 -2 34 34 S 8 13 30.2 1023 10 16.0934 0 0
7:55 pm 19:55 Clear 56 13.5 28 -2.3 34 34 S 8 13 30.2 1023 10 16.0934 0 0
8:15 pm 20:15 Clear 56 13.5 28 -2 34 34 SW 7 11 30.21 1023 10 16.0934 0 0
8:35 pm 20:35 Clear 55 13 28 -2 36 36 SSW 5 7 30.21 1023 10 16.0934 0 0
8:55 pm 20:55 Clear 55 12.9 28 -2.2 35 35 SSW 12 19 30.21 1023 10 16.0934 0 0
9:15 pm 21:15 Clear 54 12.1 29 -1.4 39 39 S 7 11 30.2 1023 10 16.0934 0 0
9:35 pm 21:35 Clear 54 12.2 29 -1.6 39 39 SSW 9 15 30.2 1023 10 16.0934 0 0
9:55 pm 21:55 Clear 54 12 29 -1.5 39 39 S 7 11 30.2 1023 10 16.0934 0 0
10:15 pm 22:15 Clear 53 11.4 30 -1.3 42 42 SSW 8 13 30.21 1023 10 16.0934 0 0
10:35 pm 22:35 Clear 53 11.4 29 -1.4 41 41 SSW 8 13 30.21 1023 10 16.0934 0 0
10:55 pm 22:55 Clear 52 11.1 29 -1.4 42 42 SW 6 9 30.22 1023 10 16.0934 0 0
11:15 pm 23:15 Clear 51 10.7 29 -1.4 43 43 SW 9 15 30.21 1023 10 16.0934 0 0
11:35 pm 23:35 Clear 50 10.2 30 -1.3 45 45 WSW 6 9 30.22 1023 10 16.0934 0 0
11:55 pm 23:55 Clear 48 9 30 -0.9 50 50 SW 6 9 30.22 1023 10 16.0934 0 0

Powered by AerisWeather